Tracking 29892 objects as of 21-Nov-2024
HD Live streaming from Space Station
objects crossing your sky now

THORAD AGENA D DEB

Track THORAD AGENA D DEB now!
10-day predictions


NORAD ID: 4217
Int'l Code: 1969-082CG
Perigee: 744.1 km
Apogee: 788.4 km
Inclination: 70.0 °
Period: 100.0 minutes
Semi major axis: 7137 km
RCS: 0.5941 m2 (medium)
Launch date: September 30, 1969
Source: United States (US)
Launch site: AIR FORCE WESTERN TEST RANGE (AFWTR)

Note: This is SATELLITE DEBRIS
Your satellite tracking list
Your tracking list is empty




NASA's NSSDC Master Catalog

Two Line Element Set (TLE):
1  4217U 69082CG  24326.15876807  .00002296  00000-0  74514-3 0  9991
2  4217  70.0410  26.9215 0031018  99.9740 260.4892 14.39819379865750
Source of the keplerian elements: AFSPC